Weather History for McCall, ID

Change the Weather History Date:

Tuesday, September 25, 2012

  Actual Average Record
Temperature  
Mean Temperature 60 °F 47 °F  
Max Temperature 73 °F 64 °F 85 °F (1994)
Min Temperature 47 °F 30 °F 16 °F (1984)
Degree Days  
Heating Degree Days 5 18  
Month to date heating degree days 205 340  
Since 1 July heating degree days 275 668  
Cooling Degree Days 0 0  
Month to date cooling degree days 0 0  
Year to date cooling degree days 172 25  
Growing Degree Days 9 (Base 50)    
Moisture  
Dew Point 43 °F    
Average Humidity 62    
Maximum Humidity 93    
Minimum Humidity 31    
Precipitation  
Precipitation 0.00 in 0.03 in 0.38 in (1950)
Month to date precipitation 0.17 0.71  
Year to date precipitation 18.31 13.75  
Sea Level Pressure  
Sea Level Pressure 29.97 in    
Wind  
Wind Speed 3 mph (WNW)    
Max Wind Speed 10 mph    
Max Gust Speed 20 mph    
Visibility 8 miles    
Events      
T = Trace of Precipitation, MM = Missing Value Source: NWS Daily Summary

Daily Weather History Graph

Daily Weather History Graph

Search for Another Location

Airport:

Trip Planner

Search our weather history database for the weather conditions in past years. The results will help you decide how hot, cold, wet, or windy it might be!

Date:

Astronomy

Sep. 25, 2012 Rise Set
Actual Time 7:35 AM MDT 7:35 PM MDT
Civil Twilight 7:06 AM MDT 8:04 PM MDT
Nautical Twilight 6:32 AM MDT 8:38 PM MDT
Astronomical Twilight 5:57 AM MDT 9:13 PM MDT
Moon 5:11 PM MDT (9/25) 2:51 AM MDT (9/25)
Length of Visible Light 12h 57m
Length of Day
11h 59m
Waxing Gibbous, 80% of the Moon is Illuminated
Sep 25
Waxing Gibbous
Sep 29
Full
Oct 8
Last Quarter
Oct 15
New
Oct 21
First Quarter

Hourly Weather History & Observations

Time (MDT) Temp. Dew Point Humidity Pressure Visibility Wind Dir Wind Speed Gust Speed Precip Events Conditions
12:51 AM 53.1 °F 45.0 °F 74% 29.99 in 8.0 mi Calm Calm - N/A   Mostly Cloudy
2:51 AM 50.0 °F 44.1 °F 80% 29.98 in 8.0 mi Calm Calm - N/A   Scattered Clouds
3:51 AM 51.1 °F 43.0 °F 74% 29.96 in 7.0 mi Calm Calm - N/A   Overcast
4:51 AM 48.0 °F 44.1 °F 86% 29.96 in 7.0 mi Calm Calm - N/A   Scattered Clouds
5:51 AM 48.0 °F 44.1 °F 86% 29.96 in 7.0 mi Calm Calm - N/A   Mostly Cloudy
6:51 AM 48.9 °F 44.1 °F 83% 29.96 in 7.0 mi Calm Calm - N/A   Mostly Cloudy
7:51 AM 46.9 °F 44.1 °F 90% 29.99 in 6.0 mi WSW 3.5 mph - N/A   Partly Cloudy
8:51 AM 48.9 °F 44.1 °F 83% 29.99 in 5.0 mi Calm Calm - N/A   Haze
9:51 AM 51.1 °F 45.0 °F 80% 29.99 in 5.0 mi SE 3.5 mph - N/A   Haze
10:51 AM 55.9 °F 45.0 °F 67% 29.98 in 6.0 mi South 4.6 mph - N/A   Haze
11:51 AM 60.1 °F 44.1 °F 55% 29.97 in 6.0 mi Calm Calm - N/A   Haze
1:51 PM 69.1 °F 39.9 °F 35% 29.93 in 10.0 mi West 8.1 mph - N/A   Clear
2:51 PM 72.0 °F 39.0 °F 30% 29.92 in 10.0 mi WNW 10.4 mph 16.1 mph N/A   Clear
3:51 PM 72.0 °F 39.0 °F 30% 29.91 in 10.0 mi WNW 9.2 mph - N/A   Clear
4:51 PM 72.0 °F 41.0 °F 33% 29.92 in 10.0 mi NW 10.4 mph 19.6 mph N/A   Scattered Clouds
6:51 PM 68.0 °F 41.0 °F 37% 29.94 in 10.0 mi WNW 3.5 mph - N/A   Mostly Cloudy
7:51 PM 63.0 °F 45.0 °F 52% 29.96 in 10.0 mi NNE 4.6 mph - N/A   Clear
8:51 PM 61.0 °F 45.0 °F 56% 29.98 in 10.0 mi Calm Calm - N/A   Clear
9:51 PM 55.0 °F 45.0 °F 69% 30.01 in 10.0 mi ENE 4.6 mph - N/A   Clear
10:51 PM 54.0 °F 44.1 °F 69% 30.01 in 10.0 mi Calm Calm - N/A   Clear